Location: Alladorf
(49.9620°N, 11.3790°E)
Time: 20:38:31
(UTC+00:00)

H-2A R/B - Pass Details

Date: 29 November 2020
Orbit: 499 x 540 km, 97.3° (Epoch: 22 January)

Event Time Altitude Azimuth Distance (km) Brightness Sun altitude
Rises 06:08:09 0° 1° (N) 2,714 6.1 -6.5°
Reaches altitude 10° 06:10:41 10° 344° (NNW) 1,814 5.1 -6.1°
Maximum altitude 06:13:34 20° 297° (WNW) 1,282 4.1 -5.7°
Drops below altitude 10° 06:16:27 10° 249° (WSW) 1,794 5.1 -5.3°
Sets 06:18:57 0° 232° (SW) 2,674 6.1 -5.0°
